Back to catalog

STARLINK-38309

AliveCommunicationsSSO
NORAD 100381·PAYLOAD·🇺🇸 United States

Launched Aug 19, 2026 from Vandenberg Space Force Base

Loading…

Next Passes (next 24 hours)

TLE

FreshSource: Space-Track

Epoch: Sep 14, 2026, 20:19 UTC

1 A0381U 26190L   26257.84653981  .00240040  00000-0  15601-2 0  9991
2 A0381  97.2834 111.8942 0000819  89.8447 270.2912 15.75268171  5484

Track STARLINK-38309 in real time with AllMySat

Download on the App Store